900  
ASUS43 KIWX 241010  
RWRIWX  
 
KIWX WEATHER ROUNDUP  
NATIONAL WEATHER SERVICE NORTHERN INDIANA  
600 AM EDT SUN JUN 24 2018  
 
NOTE: "FAIR" INDICATES FEW OR NO CLOUDS BELOW 12,000 FEET WITH NO  
SIGNIFICANT WEATHER AND/OR S TO VISIBILITY
.  
 
* THESE STATIONS ARE NOT UNDER NWS QUALITY CONTROL. THEY ALSO MAY NOT  
REPORT WEATHER SUCH AS PRECIPITATION OR FOG.
 
 
INZ001>027-241100-  
NORTHERN INDIANA  
 
CITY SKY/WX TMP DP RH WIND PRES REMARKS
 
GARY* MOCLDY 66 66 100 SW3 29.86R  
VALPARAISO FAIR 66 64 93 W5 29.86R  
MICHIGAN CITY* FAIR 63 63 100 CALM 29.86R FOG  
LAPORTE* FAIR 64 62 96 W5 29.86R  
KNOX* FAIR 64 63 94 SW5 29.85R  
SOUTH BEND FAIR 63 62 97 W5 29.86R FOG  
GOSHEN CLOUDY 65 64 97 SW5 29.84R FOG  
MONTICELLO* MOCLDY 64 63 95 CALM 29.87R  
LOGANSPORT* CLOUDY 64 63 94 SW5 29.88R  
ROCHESTER* FAIR 68 68 100 CALM 29.86R FOG  
WARSAW* CLOUDY 64 64 100 SW3 29.85S FOG  
AUBURN* CLOUDY 63 63 100 SW3 29.86R FOG  
FORT WAYNE CLOUDY 66 65 96 W8 29.86R  
HUNTINGTON* CLOUDY 64 63 96 SW5 29.85S  
PERU/GRISSOM CLOUDY 65 65 100 W3 29.85F  
MARION* FAIR 64 63 99 CALM 29.87F  
 

 
INZ028>050-241100-  
CENTRAL INDIANA  
 
CITY SKY/WX TMP DP RH WIND PRES REMARKS
 
LAFAYETTE MOCLDY 64 64 100 CALM 29.87R FOG  
KOKOMO* CLOUDY 66 64 93 W3 29.87S  
MUNCIE* CLOUDY 68 64 87 W5 29.87R  
INDIANAPOLIS FAIR 65 64 97 W7 29.88R  
 

 
MIZ043>046-050>051-056>058-064>065-071>073-077>080-241100-  
SOUTHWEST LOWER MICHIGAN  
 
CITY SKY/WX TMP DP RH WIND PRES REMARKS
 
BATTLE CREEK MOCLDY 60 56 86 W5 29.83R  
BENTON HARBOR FAIR 61 58 90 CALM 29.84R  
COLDWATER* CLOUDY 62 60 96 SW5 29.84R  
HILLSDALE* FAIR 61 57 88 SW3 29.83S  
HOLLAND CLOUDY 62 60 93 W6 29.83R  
GRAND RAPIDS DRIZZLE 61 60 97 W3 29.82R  
KALAMAZOO MOCLDY 62 56 80 W5 29.84R  
STURGIS* MOCLDY 62 60 94 CALM 29.84R  
THREE RIVERS* FAIR 60 59 97 SW3 29.85R  
 

 
OHZ001>008-015>018-024>025-241100-  
NORTHWEST OHIO  
 
CITY SKY/WX TMP DP RH WIND PRES REMARKS
 
WAUSEON* CLOUDY 63 63 100 W6 29.83S FOG  
DEFIANCE CLOUDY 63 62 97 SW3 29.84R FOG  
FINDLAY CLOUDY 67 64 90 W7 29.84R  
TOLEDO EXPRESS FAIR 63 60 90 W6 29.83R FOG  
TOLEDO METCALF FAIR 65 62 90 W7 29.83R  
LIMA CLOUDY 66 64 93 W8 29.86R  
 

 
AND FOR LAKE MICHIGAN COASTAL AND OPEN LAKE BUOY OBSERVATIONS  
 
STATION/POSITION TEMP WIND PRES VSBY WAVE
 
AIR SEA DIR/SP/G HT/PER  
(F) (DEG/KT/KT) (MB) (MI) (FT/S)  
CALUMET HARBOR 67 240/ 3/ 4 1010.3R  
BURNS HARBOR 67 CALM 1011.2R  
SAINT JOSEPH 62 CALM / 2 1011.2  
SOUTH LAKE BUOY 64 64 330/ 10/ 10 1010.4R 1/ 4  
4 MI NW BRIDGMAN 61 61 50/ 2/ 2 1010.9 1/ 4  
MICHIGAN CITY 64 63 260/ 4/ 6 N/A 1  
 

 

 
 
 
CLICK HERE TO GO TO PREVIOUS BULLETINS.

The Nexlab IN Page
The Nexlab OH Page
The Nexlab MI Page Main Text Page